Weather History for Torrington, WY

Change the Weather History Date:

Monday, September 2, 2013

  Actual Average Record
Temperature  
Mean Temperature 76 °F 67 °F  
Max Temperature 95 °F 83 °F 97 °F (2001)
Min Temperature 56 °F 50 °F 36 °F (2006)
Degree Days  
Heating Degree Days 0 2  
Month to date heating degree days 0 4  
Since 1 July heating degree days 2 26  
Cooling Degree Days 11 4  
Month to date cooling degree days 16 8  
Year to date cooling degree days 789 641  
Growing Degree Days 25 (Base 50)    
Moisture  
Dew Point 52 °F    
Average Humidity 45    
Maximum Humidity 67    
Minimum Humidity 23    
Precipitation  
Precipitation T in 0.04 in 0.39 in (1999)
Month to date precipitation T 0.09  
Year to date precipitation 6.81 11.05  
Sea Level Pressure  
Sea Level Pressure 29.92 in    
Wind  
Wind Speed 9 mph (ESE)    
Max Wind Speed 26 mph    
Max Gust Speed 37 mph    
Visibility 10 miles    
Events      
T = Trace of Precipitation, MM = Missing Value Source: NWS Daily Summary

Daily Weather History Graph

Daily Weather History Graph

Search for Another Location

Airport:

Trip Planner

Search our weather history database for the weather conditions in past years. The results will help you decide how hot, cold, wet, or windy it might be!

Date:

Astronomy

Sep. 02, 2013 Rise Set
Actual Time 6:23 AM MDT 7:28 PM MDT
Civil Twilight 5:54 AM MDT 7:56 PM MDT
Nautical Twilight 5:20 AM MDT 8:30 PM MDT
Astronomical Twilight 4:44 AM MDT 9:06 PM MDT
Moon 3:41 AM MDT (9/2) 5:44 PM MDT (9/2)
Length of Visible Light 14h 01m
Length of Day
13h 04m
Waning Crescent, 7% of the Moon is Illuminated
Sep 2
Waning Crescent
Sep 5
New
Sep 12
First Quarter
Sep 19
Full
Sep 26
Last Quarter

Hourly Weather History & Observations

Time (MDT) Temp. Heat Index Dew Point Humidity Pressure Visibility Wind Dir Wind Speed Gust Speed Precip Events Conditions
12:53 AM 63.0 °F - 46.0 °F 54% 29.98 in 10.0 mi East 10.4 mph - N/A   Clear
1:53 AM 61.0 °F - 46.9 °F 60% 29.97 in 10.0 mi East 8.1 mph - N/A   Clear
2:53 AM 60.1 °F - 46.9 °F 62% 29.97 in 10.0 mi East 6.9 mph - N/A   Clear
3:53 AM 57.9 °F - 46.9 °F 67% 29.97 in 10.0 mi East 8.1 mph - N/A   Clear
4:53 AM 59.0 °F - 46.9 °F 64% 29.97 in 10.0 mi ESE 9.2 mph - N/A   Clear
5:53 AM 57.0 °F - 46.9 °F 69% 29.97 in 10.0 mi East 9.2 mph - N/A   Clear
6:53 AM 57.0 °F - 46.9 °F 69% 29.99 in 10.0 mi ESE 9.2 mph - N/A   Clear
7:53 AM 62.1 °F - 48.0 °F 60% 30.00 in 10.0 mi ESE 10.4 mph - N/A   Clear
8:53 AM 66.9 °F - 50.0 °F 54% 30.00 in 10.0 mi SE 8.1 mph - N/A   Clear
9:53 AM 73.0 °F - 54.0 °F 51% 29.99 in 10.0 mi ESE 8.1 mph - N/A   Clear
10:53 AM 77.0 °F - 55.0 °F 47% 29.98 in 10.0 mi ESE 9.2 mph - N/A   Clear
11:53 AM 81.0 °F 81.0 °F 57.0 °F 44% 29.95 in 10.0 mi ESE 6.9 mph - N/A   Clear
12:53 PM 87.1 °F 86.1 °F 57.9 °F 37% 29.90 in 10.0 mi SE 13.8 mph 18.4 mph N/A   Clear
1:53 PM 91.0 °F 89.7 °F 57.0 °F 32% 29.88 in 10.0 mi SE 12.7 mph - N/A   Clear
2:53 PM 93.0 °F 90.8 °F 54.0 °F 27% 29.84 in 10.0 mi SE 9.2 mph - N/A   Clear
3:53 PM 93.9 °F - 51.1 °F 23% 29.82 in 10.0 mi SE 10.4 mph - N/A   Clear
4:53 PM 93.9 °F - 50.0 °F 22% 29.81 in 10.0 mi SE 9.2 mph - N/A   Clear
5:53 PM 91.9 °F - 52.0 °F 26% 29.80 in 10.0 mi East 13.8 mph 21.9 mph N/A   Clear
6:53 PM 87.1 °F 84.9 °F 53.1 °F 31% 29.83 in 10.0 mi East 5.8 mph - N/A   Mostly Cloudy
7:19 PM 78.8 °F - 55.4 °F 44% 30.01 in 10.0 mi NW 17.3 mph 27.6 mph N/A   Mostly Cloudy
7:53 PM 78.1 °F - 55.9 °F 46% 29.88 in 10.0 mi NNW 15.0 mph 26.5 mph N/A   Mostly Cloudy
8:53 PM 78.1 °F - 55.9 °F 46% 29.83 in 10.0 mi East 19.6 mph - 0.00 in   Mostly Cloudy
9:00 PM 78.8 °F - 55.4 °F 44% 30.00 in 10.0 mi East 12.7 mph 25.3 mph N/A   Mostly Cloudy
9:53 PM 73.9 °F - 57.0 °F 55% 29.86 in 10.0 mi West 4.6 mph - N/A   Clear
10:53 PM 73.9 °F - 59.0 °F 59% 29.90 in 10.0 mi NW 9.2 mph - 0.00 in   Overcast
11:53 PM 72.0 °F - 59.0 °F 64% 29.88 in 10.0 mi NW 4.6 mph - N/A   Clear